{"data":{"norad_id":57074,"intl_designator":"2023-088AC","name":"STARLINK-5773","alt_names":[],"object_type":"PAYLOAD","status":"ACTIVE","operator":null,"country":"US","launch_date":"2023-06-22","launch_site_code":"AFWTR","launch_vehicle":null,"mission":null,"orbit_class":"UNKNOWN","rcs_meters":null,"size_class":null,"mass_kg":null,"dimensions":null,"purposes":["comms"],"wikipedia_slug":null,"has_3d_model":false,"image_url":null,"decayed_at":null,"tle_current":{"epoch":"2026-09-20T21:14:56.933088Z","epoch_age_seconds":87676,"freshness":"FRESH","line1":"1 57074U 23088AC  26263.88538117 -.00000090  00000+0  62432-5 0  9995","line2":"2 57074  43.0017  91.8232 0000985 253.8691 106.2052 15.27575563180147","mean_motion":15.27575563,"eccentricity":9.85e-5,"inclination_deg":43.0017,"raan_deg":91.8232,"arg_perigee_deg":253.8691,"mean_anomaly_deg":106.2052,"bstar":6.2432e-6,"rev_number":18014,"period_min":94.267022521098,"perigee_km":482.38655390688,"apogee_km":483.73821018515,"semimajor_km":6861.199382046,"source":"CELESTRAK","updated_at":"2026-09-21T09:00:33.553364Z"}}}